DW0156 Weather Reports


time (UTC)temp
C
wind
direction
speed
KPH
gust
KPH
rain 1hr
cm
rain 24hr
cm
rain mn
cm
humidity
%
barometer
mb
20260510184604 12 263 0.0 14.5 0.00 0.00 0.00 87 1029.5
20260510184107 12 263 0.0 3.2 0.00 0.00 0.00 86 1029.5
20260510183549 12 263 0.0 0.0 0.00 0.00 0.00 86 1029.5
20260510183052 12 263 0.0 0.0 0.00 0.00 0.00 86 1029.5
20260510182538 12 263 0.0 0.0 0.00 0.00 0.00 86 1029.3
20260510182018 12 263 0.0 1.6 0.00 0.00 0.00 86 1029.3
20260510181521 12 263 0.0 0.0 0.00 0.00 0.00 85 1029.3
20260510180339 12 263 0.0 0.0 0.00 0.00 0.00 85 1029.3
20260510175831 12 263 0.0 0.0 0.00 0.00 0.00 84 1029.4
20260510175332 12 263 0.0 0.0 0.00 0.00 0.00 84 1029.4
20260510174837 12 263 0.0 0.0 0.00 0.00 0.00 84 1029.4
20260510174336 12 263 0.0 0.0 0.00 0.00 0.00 84 1029.4
20260510171926 12 263 0.0 0.0 0.00 0.00 0.00 83 1029.4
20260510171424 12 263 0.0 0.0 0.00 0.00 0.00 83 1029.4
20260510170916 13 263 0.0 0.0 0.00 0.00 0.00 83 1029.3
20260510170401 13 263 0.0 0.0 0.00 0.00 0.00 83 1029.3
20260510165904 13 263 0.0 0.0 0.00 0.00 0.00 83 1029.5
20260510165351 13 263 0.0 0.0 0.00 0.00 0.00 83 1029.5
20260510164856 13 263 0.0 0.0 0.00 0.00 0.00 83 1029.5
20260510164353 13 263 0.0 0.0 0.00 0.00 0.00 83 1029.5
20260510163836 13 263 0.0 0.0 0.00 0.00 0.00 83 1029.5
20260510163323 13 263 0.0 0.0 0.00 0.00 0.00 83 1029.5
20260510162829 13 263 0.0 0.0 0.00 0.00 0.00 83 1029.6
20260510162317 13 263 0.0 0.0 0.00 0.00 0.00 83 1029.6
20260510161809 13 263 0.0 0.0 0.00 0.00 0.00 83 1029.6
20260510161258 13 263 0.0 0.0 0.00 0.00 0.00 83 1029.8
20260510160801 13 263 0.0 4.8 0.00 0.00 0.00 83 1029.8
20260510160311 13 263 0.0 3.2 0.00 0.00 0.00 83 1029.8
20260510155820 13 263 0.0 0.0 0.00 0.00 0.00 83 1029.8
20260510155322 13 263 0.0 0.0 0.00 0.00 0.00 83 1029.8
20260510154805 13 263 0.0 4.8 0.00 0.00 0.00 83 1029.8
20260510153623 13 263 0.0 3.2 0.00 0.00 0.00 82 1029.9
20260510151858 13 263 3.2 12.9 0.00 0.00 0.00 82 1029.8
20260510151354 13 263 3.2 12.9 0.00 0.00 0.00 82 1029.7
20260510150900 13 263 4.8 19.3 0.00 0.00 0.00 82 1029.7
20260510150345 13 263 4.8 19.3 0.00 0.00 0.00 82 1029.7
20260510145846 13 263 6.4 19.3 0.00 0.00 0.00 81 1029.7
20260510145346 13 263 4.8 19.3 0.00 0.00 0.00 81 1029.7
20260510144828 13 263 3.2 12.9 0.00 0.00 0.00 81 1029.7
20260510143725 13 263 4.8 20.9 0.00 0.00 0.00 81 1029.7
20260510143226 13 263 4.8 20.9 0.00 0.00 0.00 81 1029.7
20260510142729 13 263 4.8 20.9 0.00 0.00 0.00 81 1029.7
20260510142218 13 263 4.8 17.7 0.00 0.00 0.00 81 1029.7
20260510141046 13 263 6.4 17.7 0.00 0.00 0.00 81 1029.9
20260510140532 13 263 6.4 17.7 0.00 0.00 0.00 81 1029.9
20260510140036 13 263 6.4 22.5 0.00 0.00 0.00 81 1029.9
20260510135525 13 263 4.8 22.5 0.00 0.00 0.00 81 1030.0
20260510133705 14 263 6.4 20.9 0.00 0.00 0.00 81 1030.0
20260510132536 13 263 6.4 19.3 0.00 0.00 0.00 81 1030.0
20260510130801 13 263 3.2 11.3 0.00 0.00 0.00 81 1030.1
20260510125639 13 263 4.8 14.5 0.00 0.00 0.00 81 1030.1
20260510124505 13 263 6.4 16.1 0.00 0.00 0.00 81 1030.1
20260510122704 13 263 3.2 16.1 0.00 0.00 0.00 82 1030.2
20260510122204 13 263 1.6 14.5 0.00 0.00 0.00 82 1030.2
20260510121106 13 263 4.8 19.3 0.00 0.00 0.00 82 1030.1
20260510120559 14 263 4.8 19.3 0.00 0.00 0.00 81 1030.1
20260510120041 14 263 4.8 19.3 0.00 0.00 0.00 82 1030.1
20260510115528 14 263 6.4 19.3 0.00 0.00 0.00 82 1030.0
20260510115034 13 263 6.4 17.7 0.00 0.00 0.00 82 1030.0
20260510114531 13 263 4.8 17.7 0.00 0.00 0.00 82 1030.0
20260510114031 13 263 4.8 12.9 0.00 0.00 0.00 82 1030.0
20260510113531 13 263 4.8 12.9 0.00 0.00 0.00 82 1030.0
20260510113034 13 263 1.6 9.7 0.00 0.00 0.00 82 1030.0
20260510112527 13 263 0.0 9.7 0.00 0.00 0.00 82 1029.9
20260510111353 13 263 1.6 14.5 0.00 0.00 0.00 82 1029.9
20260510110216 13 263 1.6 8.0 0.00 0.00 0.00 81 1029.9
20260510105713 13 263 0.0 8.0 0.00 0.00 0.00 81 1030.0
20260510105154 14 263 0.0 8.0 0.00 0.00 0.00 80 1030.0
20260510104703 14 263 0.0 0.0 0.00 0.00 0.00 80 1030.0
20260510104155 14 263 0.0 0.0 0.00 0.00 0.00 80 1030.1
20260510103651 14 263 0.0 0.0 0.00 0.00 0.00 80 1030.1
20260510101920 15 263 0.0 3.2 0.00 0.00 0.00 79 1030.0
20260510101411 15 263 0.0 0.0 0.00 0.00 0.00 79 1030.0
20260510100853 15 263 0.0 3.2 0.00 0.00 0.00 79 1030.1
20260510100334 15 263 0.0 1.6 0.00 0.00 0.00 79 1030.1
20260510095825 15 263 0.0 0.0 0.00 0.00 0.00 79 1029.9
20260510095307 15 263 0.0 0.0 0.00 0.00 0.00 78 1029.9
20260510094756 15 263 0.0 0.0 0.00 0.00 0.00 78 1029.9
20260510094302 15 263 0.0 0.0 0.00 0.00 0.00 78 1029.7
20260510093743 15 263 0.0 0.0 0.00 0.00 0.00 77 1029.7
20260510092614 15 263 0.0 1.6 0.00 0.00 0.00 76 1029.6
20260510092112 15 263 0.0 1.6 0.00 0.00 0.00 75 1029.6
20260510091556 15 263 0.0 1.6 0.00 0.00 0.00 75 1029.6
20260510090409 15 263 0.0 0.0 0.00 0.00 0.00 74 1029.6
20260510085901 15 263 0.0 0.0 0.00 0.00 0.00 73 1029.5
20260510085356 15 263 0.0 0.0 0.00 0.00 0.00 73 1029.5
20260510084904 15 263 0.0 1.6 0.00 0.00 0.00 73 1029.5
20260510084411 15 263 0.0 1.6 0.00 0.00 0.00 73 1029.5
20260510083906 15 263 0.0 1.6 0.00 0.00 0.00 72 1029.3
20260510083412 15 263 0.0 0.0 0.00 0.00 0.00 72 1029.3
20260510082853 15 263 0.0 0.0 0.00 0.00 0.00 72 1029.1
20260510082348 15 263 0.0 0.0 0.00 0.00 0.00 72 1029.1
20260510081858 15 263 0.0 0.0 0.00 0.00 0.00 71 1029.1
20260510081350 15 263 0.0 0.0 0.00 0.00 0.00 71 1029.0
20260510080229 15 263 0.0 0.0 0.00 0.00 0.00 70 1029.0
20260510075102 15 263 0.0 0.0 0.00 0.00 0.00 70 1028.9
20260510074610 16 263 0.0 1.6 0.00 0.00 0.00 69 1028.9
20260510074105 16 263 0.0 0.0 0.00 0.00 0.00 69 1028.7
20260510073613 16 263 0.0 0.0 0.00 0.00 0.00 69 1028.7
20260510073113 16 263 0.0 0.0 0.00 0.00 0.00 68 1028.7
20260510072614 16 263 1.6 4.8 0.00 0.00 0.00 68 1028.7
20260510072104 16 263 3.2 4.8 0.00 0.00 0.00 68 1028.7
20260510070940 16 263 1.6 8.0 0.00 0.00 0.00 67 1028.8
20260510070446 16 263 3.2 9.7 0.00 0.00 0.00 67 1028.8
20260510065321 16 263 4.8 9.7 0.00 0.00 0.00 66 1028.6
20260510064802 17 263 3.2 9.7 0.00 0.00 0.00 66 1028.6
20260510064311 17 263 3.2 8.0 0.00 0.00 0.00 65 1028.5
20260510063813 17 263 3.2 6.4 0.00 0.00 0.00 65 1028.5
20260510062032 17 263 3.2 8.0 0.00 0.00 0.00 64 1028.5
20260510061520 17 263 3.2 8.0 0.00 0.00 0.00 64 1028.5
20260510061027 17 263 4.8 9.7 0.00 0.00 0.00 63 1028.5
20260510055901 17 263 3.2 12.9 0.00 0.00 0.00 62 1028.4
20260510055403 17 263 3.2 12.9 0.00 0.00 0.00 61 1028.4
20260510054847 18 263 4.8 12.9 0.00 0.00 0.00 61 1028.4
20260510053728 18 263 3.2 11.3 0.00 0.00 0.00 61 1028.4
20260510053228 18 263 4.8 11.3 0.00 0.00 0.00 61 1028.4
20260510052716 18 263 4.8 11.3 0.00 0.00 0.00 61 1028.4
20260510052213 18 263 4.8 9.7 0.00 0.00 0.00 62 1028.4
20260510051654 17 263 3.2 9.7 0.00 0.00 0.00 61 1028.4
20260510050516 17 263 1.6 8.0 0.00 0.00 0.00 62 1028.4
20260510050006 17 263 3.2 8.0 0.00 0.00 0.00 62 1028.4
20260510045456 17 263 3.2 8.0 0.00 0.00 0.00 61 1028.5
20260510044338 18 263 0.0 3.2 0.00 0.00 0.00 62 1028.5
20260510043835 18 263 0.0 6.4 0.00 0.00 0.00 62 1028.5
20260510043335 18 263 0.0 6.4 0.00 0.00 0.00 61 1028.5
20260510042819 18 263 3.2 9.7 0.00 0.00 0.00 60 1028.5
20260510041633 18 263 1.6 9.7 0.00 0.00 0.00 61 1028.5
20260510041127 18 263 0.0 6.4 0.00 0.00 0.00 61 1028.5
20260510040628 18 263 0.0 3.2 0.00 0.00 0.00 61 1028.5
20260510040136 18 263 0.0 0.0 0.00 0.00 0.00 61 1028.5
20260510035632 17 263 1.6 6.4 0.00 0.00 0.00 61 1028.6
20260510035130 18 263 0.0 4.8 0.00 0.00 0.00 61 1028.6
20260510034631 18 263 0.0 1.6 0.00 0.00 0.00 62 1028.6
20260510034123 17 263 0.0 4.8 0.00 0.00 0.00 61 1028.9
20260510033618 17 263 0.0 4.8 0.00 0.00 0.00 61 1028.9
20260510032456 17 263 3.2 6.4 0.00 0.00 0.00 61 1029.0
20260510032006 17 263 1.6 6.4 0.00 0.00 0.00 61 1029.0
20260510031503 18 263 0.0 4.8 0.00 0.00 0.00 61 1029.0
20260510030956 18 263 0.0 3.2 0.00 0.00 0.00 60 1029.1
20260510030447 18 263 0.0 4.8 0.00 0.00 0.00 61 1029.1
20260510025323 18 263 0.0 4.8 0.00 0.00 0.00 61 1029.4
20260510024833 18 263 0.0 4.8 0.00 0.00 0.00 60 1029.4
20260510024328 18 263 0.0 6.4 0.00 0.00 0.00 61 1029.5
20260510023828 18 263 0.0 6.4 0.00 0.00 0.00 61 1029.5
20260510023317 18 263 0.0 6.4 0.00 0.00 0.00 61 1029.5
20260510022812 18 263 0.0 6.4 0.00 0.00 0.00 61 1029.8
20260510022317 17 263 0.0 3.2 0.00 0.00 0.00 62 1029.8
20260510021807 17 263 0.0 3.2 0.00 0.00 0.00 62 1029.8
20260510021309 17 263 0.0 0.0 0.00 0.00 0.00 62 1030.1
20260510020753 17 263 0.0 4.8 0.00 0.00 0.00 63 1030.1
20260510020253 17 263 0.0 4.8 0.00 0.00 0.00 64 1030.1
20260510015749 17 263 0.0 4.8 0.00 0.00 0.00 63 1030.2
20260510015240 17 263 0.0 3.2 0.00 0.00 0.00 64 1030.2
20260510014740 17 263 0.0 0.0 0.00 0.00 0.00 64 1030.2
20260510014234 17 263 0.0 3.2 0.00 0.00 0.00 65 1030.2
20260510013737 16 263 0.0 3.2 0.00 0.00 0.00 65 1030.2
20260510013230 16 263 0.0 4.8 0.00 0.00 0.00 65 1030.2
20260510012716 16 263 0.0 4.8 0.00 0.00 0.00 65 1030.2
20260510012205 16 263 0.0 4.8 0.00 0.00 0.00 65 1030.2
20260510011710 16 263 0.0 3.2 0.00 0.00 0.00 66 1030.2
20260510011212 16 263 0.0 3.2 0.00 0.00 0.00 67 1030.3
20260510010701 16 263 0.0 3.2 0.00 0.00 0.00 67 1030.3
20260510010156 16 263 0.0 3.2 0.00 0.00 0.00 68 1030.3
20260510005659 16 263 0.0 0.0 0.00 0.00 0.00 69 1030.2
20260510003915 16 263 0.0 4.8 0.00 0.00 0.00 71 1030.3
20260510002753 15 263 1.6 4.8 0.00 0.00 0.00 71 1030.3
20260510002243 15 263 0.0 4.8 0.00 0.00 0.00 71 1030.3
20260510001729 15 263 0.0 4.8 0.00 0.00 0.00 72 1030.3
20260510001222 15 263 0.0 0.0 0.00 0.00 0.00 72 1030.4
20260510000705 15 263 1.6 4.8 0.00 0.00 0.00 72 1030.4
20260510000200 15 263 1.6 9.7 0.00 0.00 0.00 72 1030.4
20260509235656 15 263 3.2 11.3 0.00 0.00 0.00 72 1030.4
20260509235200 15 263 3.2 11.3 0.00 0.00 0.00 72 1030.4
20260509234659 15 263 3.2 11.3 0.00 0.00 0.00 73 1030.4
20260509234206 15 263 3.2 11.3 0.00 0.00 0.00 73 1030.4
20260509233650 15 263 3.2 9.7 0.00 0.00 0.00 75 1030.4
20260509233134 15 263 3.2 12.9 0.00 0.00 0.00 75 1030.4
20260509232614 15 263 3.2 12.9 0.00 0.00 0.00 76 1030.3
20260509232111 14 263 4.8 14.5 0.00 0.00 0.00 77 1030.3
20260509231617 14 263 4.8 14.5 0.00 0.00 0.00 77 1030.3
20260509231125 14 263 3.2 14.5 0.00 0.00 0.00 79 1030.1
20260509230613 14 263 4.8 14.5 0.00 0.00 0.00 80 1030.1
20260509230120 13 263 3.2 8.0 0.00 0.00 0.00 82 1030.1
20260509225626 13 263 3.2 8.0 0.00 0.00 0.00 84 1030.1
20260509225109 13 263 4.8 8.0 0.00 0.00 0.00 85 1030.1
20260509224607 13 263 1.6 8.0 0.00 0.00 0.00 86 1030.1
20260509224115 13 263 1.6 8.0 0.00 0.00 0.00 87 1030.0
20260509223612 13 263 1.6 8.0 0.00 0.00 0.00 88 1030.0
20260509223119 13 263 1.6 8.0 0.00 0.00 0.00 89 1030.0
20260509222623 12 263 1.6 8.0 0.00 0.00 0.00 89 1029.6
20260509222108 12 263 1.6 6.4 0.00 0.00 0.00 90 1029.6
20260509221615 12 263 0.0 4.8 0.00 0.00 0.00 90 1029.6
20260509221108 12 263 0.0 0.0 0.00 0.00 0.00 91 1029.6
20260509220606 12 263 0.0 0.0 0.00 0.00 0.00 91 1029.6
20260509220114 12 263 0.0 0.0 0.00 0.00 0.00 91 1029.6
20260509215605 12 263 0.0 3.2 0.00 0.00 0.00 91 1029.4
20260509215051 12 263 0.0 1.6 0.00 0.00 0.00 91 1029.4
20260509214544 11 263 0.0 1.6 0.00 0.00 0.00 91 1029.4
20260509213429 11 263 0.0 0.0 0.00 0.00 0.00 91 1029.1
20260509212257 11 263 0.0 1.6 0.00 0.00 0.00 91 1029.1
20260509211758 11 263 0.0 0.0 0.00 0.00 0.00 91 1029.1
20260509211254 11 263 0.0 0.0 0.00 0.00 0.00 91 1029.1
20260509210143 11 263 0.0 0.0 0.00 0.00 0.00 91 1029.1
20260509205628 11 263 0.0 0.0 0.00 0.00 0.00 91 1029.0
20260509205114 11 263 0.0 0.0 0.00 0.00 0.00 91 1029.0
20260509204606 11 263 0.0 0.0 0.00 0.00 0.00 91 1029.0
20260509204109 11 263 0.0 0.0 0.00 0.00 0.00 91 1028.8
20260509203614 11 263 0.0 0.0 0.00 0.00 0.00 91 1028.8
20260509203116 11 263 0.0 0.0 0.00 0.00 0.00 91 1028.8
20260509202603 11 263 0.0 0.0 0.00 0.00 0.00 91 1028.6
20260509202047 11 263 0.0 0.0 0.00 0.00 0.00 91 1028.6
20260509201544 11 263 0.0 1.6 0.00 0.00 0.00 91 1028.6
20260509201035 11 263 0.0 0.0 0.00 0.00 0.00 91 1028.5
20260509200523 11 263 0.0 0.0 0.00 0.00 0.00 91 1028.5
20260509200007 11 263 0.0 0.0 0.00 0.00 0.00 91 1028.5
20260509195004 11 263 0.0 0.0 0.00 0.00 0.00 91 1028.5
20260509194508 11 263 0.0 0.0 0.00 0.00 0.00 91 1028.5
20260509194013 11 263 0.0 0.0 0.00 0.00 0.00 91 1028.5
20260509193522 11 263 0.0 0.0 0.00 0.00 0.00 90 1028.5
20260509193006 11 263 0.0 0.0 0.00 0.00 0.00 90 1028.5
20260509192509 11 263 0.0 0.0 0.00 0.00 0.00 90 1028.4
20260509192018 11 263 0.0 0.0 0.00 0.00 0.00 91 1028.4
20260509191510 11 263 0.0 0.0 0.00 0.00 0.00 91 1028.4
20260509190951 11 263 0.0 0.0 0.00 0.00 0.00 91 1028.2
20260509190433 11 263 0.0 0.0 0.00 0.00 0.00 90 1028.2